Location: Most
(50.5330°N, 13.6500°E)
Time: 05:52:49
(UTC+02:00)

ISS - Pass Details

Date: 25 May 2021
Orbit: 417 x 422 km, 51.6° (Epoch: 13 June)

Event Time Altitude Azimuth Distance (km) Brightness Sun altitude
Rises 22:11:50 0° 283° (WNW) 2,367 1.0 -9.1°
Reaches altitude 10° 22:13:56 10° 283° (WNW) 1,502 -0.1 -9.3°
Maximum altitude 22:17:19 87° 196° (SSW) 425 -3.8 -9.7°
Enters shadow 22:20:39 10° 106° (ESE) 1,485 -1.5 -10.0°
